Regional Weather Roundup
Issued by NWS

Home | Current Version | Previous Version | Text Only | Print | Product List | Glossary On
Versions: 1 2 3 4 5 6 7 8 9 10 11 12 13 14 15 16 17 18 19 20 21 22 23 24 25 26 27 28 29 30 31 32 33 34 35 36 37 38 39 40 41 42 43 44 45 46 47 48 49 50
000
ASUS45 KBOU 292207
RWRCO

WEATHER ROUNDUP FOR COLORADO
NATIONAL WEATHER SERVICE DENVER/BOULDER CO
400 PM MDT SUN MAR 29 2015

NOTE: "FAIR" INDICATES FEW OR NO CLOUDS BELOW 12000 FEET WITH NO
SIGNIFICANT WEATHER AND/OR OBSTRUCTIONS TO VISIBILITY.

COZ001>005-013-030-031-292300-
...NORTHWEST COLORADO...

CITY           SKY/WX    TMP DP  RH WIND       PRES   REMARKS
CRAIG          SUNNY     64  14  14 VRB7G17   30.22F
HAYDEN         SUNNY     61  12  15 NW12G17   30.23F
MEEKER         SUNNY     65  12  12 VRB3      30.22F
MOUNT WERNER   NOT AVBL
STEAMBOAT SPGS SUNNY     58  15  17 W7        30.24F
WALDEN         MOSUNNY   55   5  13 SW16      30.26F
$$

COZ006>008-011-292300-
...WEST CENTRAL VALLEYS...

CITY           SKY/WX    TMP DP  RH WIND       PRES   REMARKS
GRAND JUNCTION SUNNY     72   8   8 NW12G17   30.14F
MONTROSE       SUNNY     72   5   7 NW7       30.18F
EAGLE          SUNNY     66   9  10 W7        30.22F
RIFLE          SUNNY     71   8   8 CALM      30.16F
DELTA          SUNNY     77  10   8 SW6       30.14F
NUCLA          SUNNY     72   9   8 N9        30.23F
$$

COZ017>023-064>068-292300-
...SOUTHWEST COLORADO...

CITY           SKY/WX    TMP DP  RH WIND       PRES   REMARKS
DURANGO        SUNNY     72  16  12 SW16G24   30.18F
CORTEZ         SUNNY     75  11   8 W12G18    30.18F
PAGOSA SPRINGS MOSUNNY   66  10  11 CALM      30.24F
TELLURIDE      SUNNY     59  -3   8 W13G18    30.35F
WOLF CREEK PAS PTSUNNY   37  18  44 SW14G21   30.50S
$$

COZ009-010-012-014-032>034-037-058>063-292300-
...CENTRAL COLORADO...

CITY           SKY/WX    TMP DP  RH WIND       PRES   REMARKS
ASPEN          SUNNY     63  13  14 N9        30.25F
BUENA VISTA    SUNNY     65  -5   6 W5G22     30.24F
COPPER MTN     SUNNY     45  -6  12 W12G26    30.45R
BERTHOUD PASS  FAIR      34  28  80 W29G41    30.45R WCI  20
COTTONWOOD PAS SUNNY     57 -31   2 W13G23    30.34F
GUNNISON       SUNNY     64  10  12 W16G23    30.27F
KREMMLING      SUNNY     63  -2   7 NW8G16    30.25F
LEADVILLE      SUNNY     48   3  15 NW7       30.34F
SALIDA         SUNNY     70   2   7 SW13G20   30.28F
SUNLIGHT       SUNNY     50  12  22 CALM      30.44F
WILKERSON PASS SUNNY     46  -4  12 W3        30.43S
$$

COZ069>075-292300-
...SAN LUIS VALLEY/SANGRE DE CRISTO MOUNTAINS...

CITY           SKY/WX    TMP DP  RH WIND       PRES   REMARKS
ALAMOSA        MOSUNNY   65   9  11 E7        30.21F
LA VETA PASS   MOSUNNY   46  25  42 NE9       30.38F
SAGUACHE       SUNNY     66  -2   6 NW16G23   30.24F
$$

COZ035-036-038>040-292300-
...NORTHERN COLORADO FRONT RANGE...

CITY           SKY/WX    TMP DP  RH WIND       PRES   REMARKS
DENVER INTL AP MOSUNNY   60  24  25 SE9       30.19F
DMNS CITY PARK   N/A     62  24  23 E7G14     30.18F
AURORA         NOT AVBL
FRONT RANGE AP MOSUNNY   63  27  25 SE14      30.21F
ERIE MUNI ARPT SUNNY     63  20  19 SE7       30.18F
BOULDER MUN AP SUNNY     63  23  22 SE10      30.17F
CENTENNIAL     MOSUNNY   60  24  25 VRB7      30.19F
BROOMFIELD     MOSUNNY   63  21  20 SE7       30.20F
FORT COLLINS   SUNNY     63  25  23 S15G21    30.17F
LONGMONT       SUNNY     67  22  18 S10       30.18F
$$

COZ041-046-047-076>085-087-088-292300-
...PIKES PEAK/PALMER DIVIDE AND SOUTHERN FOOTHILLS...

CITY           SKY/WX    TMP DP  RH WIND       PRES   REMARKS
COLO. SPRINGS  MOSUNNY   61  19  19 S16G25    30.23F
A. F. ACADEMY  NOT AVBL
ELLICOTT       SUNNY    N/A N/A N/A S3        30.23F
FALCON         SUNNY     60  18  20 S14       30.26F
FORT CARSON    NOT AVBL
LIMON          SUNNY     59  20  22 VRB3      30.22F
MONUMENT HILL  SUNNY     57  23  26 S13G23    30.23F
TRINIDAD       SUNNY     63  20  19 SE12G21   30.23F
$$

COZ042>045-048>051-090-091-292300-
...NORTHEAST COLORADO...

CITY           SKY/WX    TMP DP  RH WIND       PRES   REMARKS
GREELEY ARPT   SUNNY     66  21  18 S13       30.15F
AKRON          SUNNY     61  21  21 N7        30.19F
BURLINGTON     SUNNY     64  18  17 N9G23     30.20F
WRAY           SUNNY     66  15  14 N12G18    30.18F
STERLING       SUNNY     64  27  24 NE8       30.17F
HOLYOKE        NOT AVBL
FORT MORGAN    SUNNY    N/A N/A N/A E6        30.18F
$$

COZ086-089-092>099-292300-
...SOUTHEAST COLORADO...

CITY           SKY/WX    TMP DP  RH WIND       PRES   REMARKS
PUEBLO         SUNNY     65  20  17 SE12G18   30.18F
LA JUNTA       SUNNY     69  20  15 MISG      30.19F
LAMAR          SUNNY     71  19  14 N12G17    30.17F
SPRINGFIELD      N/A     67  19  16 N12G26    30.20F
$$


USA.gov is the U.S. government's official web portal to all federal, state and local government web resources and services.